#timestamp,LO_Frequency,Hit,StdDev 
1679698815.2,286047000.6,N
1679698835.1,286047001.0,N
1679698836.0,286047001.0,N
1679698855.8,286046999.8,N
1679698875.6,286047002.5,N
1679698895.5,286047000.8,N
1679698915.3,286046998.7,N
1679698935.2,286047001.1,N
1679698955.9,286047002.4,N
1679698975.7,286047000.8,N
1679698995.6,286047000.7,N
1679699015.4,286047000.9,N
1679699035.3,286047001.2,N
1679699055.1,286047000.0,N
1679699056.0,286047000.0,N
1679699075.8,286047000.4,N
1679699095.7,286047000.9,N
1679699115.5,286047002.7,N
1679699135.4,286047001.2,N
1679699155.2,286047000.1,N
1679699175.0,286047000.3,N
1679699175.9,286047000.3,N
1679699195.8,286047001.1,N
1679699215.6,286046999.8,N
1679699235.4,286047002.8,Y
1679699255.3,286047000.1,P
1679699275.1,286047000.0,N
1679699295.9,286047000.3,N
1679699315.7,286047000.8,N
1679699335.5,286047000.3,N
1679699355.4,286047002.8,Y
1679699375.2,286046999.9,P
1679699395.0,286047000.7,N
1679699396.0,286047000.7,N
1679699415.8,286046998.3,Y
1679699435.6,286046998.4,P
1679699455.5,286046998.8,N
1679699475.3,286047000.8,N
1679699495.1,286047000.5,N
1679699515.9,286047000.4,N
1679699535.7,286047000.8,N
1679699555.5,286047000.6,N
1679699575.4,286046998.8,N
1679699595.2,286046999.2,N
1679699615.1,286046999.3,N
1679699616.0,286046999.3,N
1679699635.8,286046999.0,N
1679699655.6,286046999.7,N
1679699675.5,286047000.9,N
1679699695.3,286047002.5,N
1679699715.1,286047000.5,N
1679699735.9,286046998.9,N
1679699755.7,286046998.2,N
1679699775.6,286047000.3,N
1679699795.4,286047002.6,N
1679699815.2,286047002.3,N
1679699835.1,286047002.1,N
1679699836.0,286047002.1,N
1679699855.8,286046999.8,N
1679699875.7,286047002.8,N
1679699895.5,286046998.7,N
1679699915.3,286047000.7,N
1679699935.2,286046999.9,N
1679699955.0,286047001.2,N
1679699955.9,286047001.2,N
1679699975.8,286047000.5,N
1679699995.6,286047000.3,N
1679700015.4,286047000.5,N
1679700035.3,286047000.0,N
1679700055.1,286047002.7,N
1679700075.8,286047000.4,N
1679700095.7,286047002.6,N
1679700115.5,286047000.9,N
1679700135.4,286047000.4,N
1679700155.2,286046999.8,N
1679700175.0,286047000.1,N
1679700175.9,286047000.1,N
1679700195.8,286047000.4,N
1679700215.6,286047001.2,N
1679700235.4,286047000.9,N
1679700255.3,286047000.0,N
1679700275.1,286047001.6,N
1679700295.9,286047003.3,N
1679700315.7,286047002.2,N
1679700335.5,286047002.5,N
1679700355.4,286047005.7,Y
1679700375.2,286047003.1,P
1679700395.0,286047003.7,P
1679700395.9,286047003.7,P
1679700415.8,286047002.6,N
1679700435.6,286047000.5,N
1679700455.5,286047000.0,N
1679700475.3,286047004.4,Y
1679700495.1,286046999.0,P
1679700515.9,286047000.0,N
1679700535.7,286047000.5,N
1679700555.5,286046998.7,N
1679700575.4,286046995.0,Y
1679700595.2,286046995.3,P
1679700615.1,286046995.0,N
1679700616.0,286046995.0,N
1679700635.8,286046999.3,N
1679700655.6,286046996.6,N
1679700675.5,286046996.6,N
1679700695.3,286046999.0,N
1679700715.2,286047000.1,N
1679700735.9,286047001.2,N
1679700755.7,286046999.4,N
1679700775.6,286046999.1,N
1679700795.4,286046995.0,N
1679700815.2,286046996.3,N
1679700835.1,286046996.5,N
1679700836.0,286046996.5,N
1679700855.8,286046999.0,N
1679700875.7,286046999.1,N
1679700895.5,286047000.7,N
1679700915.3,286047000.8,N
1679700935.2,286046998.8,N
1679700955.9,286046998.3,N
1679700975.7,286046998.9,N
1679700995.6,286046999.1,N
1679701015.4,286046998.5,N
1679701035.3,286046999.3,N
1679701055.1,286046999.3,N
1679701056.0,286046999.3,N
1679701075.8,286046999.1,N
1679701095.7,286046999.3,N
1679701115.5,286046999.1,N
1679701135.3,286046997.4,N
1679701155.2,286046997.5,N
1679701175.0,286046995.0,Y
1679701175.9,286046995.0,P
1679701195.8,286046999.2,N
1679701215.6,286046999.1,N
1679701235.4,286046998.5,N
1679701255.3,286046998.1,N
1679701275.1,286047000.8,N
1679701295.8,286046999.7,N
1679701315.7,286047002.1,N
1679701335.5,286047001.4,N
1679701355.4,286046999.7,N
1679701375.2,286047000.7,N
1679701395.0,286047001.1,N
1679701395.9,286047001.1,N
1679701415.8,286046998.7,N
1679701435.6,286046998.9,N
1679701455.4,286046998.5,N
1679701475.3,286047000.3,N
1679701495.1,286047001.0,N
1679701515.9,286046999.7,N
1679701535.7,286047002.6,N
1679701555.5,286047000.6,N
1679701575.4,286047002.8,N
1679701595.2,286047000.1,N
1679701615.0,286047002.1,N
1679701616.0,286047002.1,N
1679701635.8,286047002.2,N
1679701655.6,286047000.4,N
1679701675.5,286047001.2,N
1679701695.3,286046998.4,N
1679701715.1,286047000.3,N
1679701735.9,286047000.0,N
1679701755.7,286047002.5,N
1679701775.6,286047001.1,N
1679701795.4,286046998.1,N
1679701815.2,286047001.2,N
1679701835.1,286047000.9,N
1679701836.0,286047000.9,N
1679701855.8,286047000.7,N
1679701875.6,286047002.8,N
1679701895.5,286047000.0,N
1679701915.3,286047002.7,N
1679701935.2,286047001.4,N
1679701955.9,286047002.5,N
1679701975.7,286047002.2,N
1679701995.6,286047002.7,N
1679702015.4,286047001.0,N
1679702035.2,286047000.3,N
1679702055.1,286047001.1,N
1679702056.0,286047001.1,N
1679702075.8,286047002.1,N
1679702095.7,286047003.3,N
1679702115.5,286047002.7,N
1679702135.3,286046998.5,N
1679702155.2,286046998.2,N
1679702175.0,286046998.4,N
1679702175.9,286046998.4,N
1679702195.8,286046999.3,N
1679702215.6,286046999.0,N
1679702235.4,286046999.1,N
1679702255.3,286047000.5,N
1679702275.1,286046999.8,N
1679702295.8,286047002.3,N
1679702315.7,286047002.3,N
1679702335.5,286047002.3,N
1679702355.4,286047002.1,N
1679702375.2,286047000.0,N
1679702395.0,286047003.8,N
1679702395.9,286047003.8,N
